Waarnemingen

Advertentie
Mijn weer
Aachen-Orsbach, Duitsland (10505): temperatuur & dauwpunt: 12.02.2019 19:00:00 - 18.02.2019 19:00:00 (CET)Aachen-Orsbach, Duitsland (10505): temperatuur 5cm & temperatuur -5cm: 12.02.2019 19:00:00 - 18.02.2019 19:00:00 (CET)Aachen-Orsbach, Duitsland (10505): temperatuur -20cm & temperatuur -100cm: 12.02.2019 19:00:00 - 18.02.2019 19:00:00 (CET)Aachen-Orsbach, Duitsland (10505): windsnelheid & windstoten: 12.02.2019 19:00:00 - 18.02.2019 19:00:00 (CET)Aachen-Orsbach, Duitsland (10505): windrichting: 12.02.2019 19:00:00 - 18.02.2019 19:00:00 (CET)Aachen-Orsbach, Duitsland (10505): luchtdruk: 12.02.2019 19:00:00 - 18.02.2019 19:00:00 (CET)Aachen-Orsbach, Duitsland (10505): zicht: 12.02.2019 19:00:00 - 18.02.2019 19:00:00 (CET)Aachen-Orsbach, Duitsland (10505): Zonneschijnduur: 12.02.2019 19:00:00 - 18.02.2019 19:00:00 (CET)Aachen-Orsbach, Duitsland (10505): neerslag: 12.02.2019 19:00:00 - 18.02.2019 19:00:00 (CET)
Datum & Tijd tt [°C] td [°C] tt 5cm [°C] tt -5cm [°C] tt -20cm [°C] tt -100cm [°C] ff [km/u] ff [kn] fx [km/u] fx [kn] dd ppp [hPa] vv [km] sd [min] rr [mm]
18.02.2019 19:00:00 10,1 1,3 7,7 8,0 6,8 5,6 14 8 27 15 Z 1016,5 48 0 0,0
18.02.2019 18:00:00 11,3 1,4 9,3 9,3 6,6 5,6 22 12 30 16 Z 1015,9 51 28 0,0
18.02.2019 17:00:00 12,9 2,0 12,2 10,8 6,4 5,6 22 12 29 16 ZZW 1015,8 52 60 0,0
18.02.2019 16:00:00 15,2 0,3 15,7 12,0 6,0 5,6 17 9 23 12 ZZW 1015,6 58 60 0,0
18.02.2019 15:00:00 15,6 0,9 16,8 12,1 5,7 5,6 13 7 21 11 ZW 1015,7 58 60 0,0
18.02.2019 14:00:00 15,7 0,9 17,1 11,7 5,4 5,6 15 8 20 11 ZW 1016,4 56 60 0,0
18.02.2019 13:00:00 15,3 1,2 16,7 10,5 5,1 5,6 11 6 16 8 ZW 1017,3 64 60 0,0
18.02.2019 12:00:00 14,2 1,1 15,3 8,4 5,0 5,6 10 6 23 12 ZW 1018,0 33 60 0,0
18.02.2019 11:00:00 12,6 -0,1 12,6 6,5 4,9 5,6 17 9 23 12 ZZW 1018,6 63 60 0,0
18.02.2019 10:00:00 10,8 -0,8 10,3 4,8 5,0 5,6 18 10 23 12 ZZW 1019,0 53 60 0,0
18.02.2019 09:00:00 9,9 -1,3 8,0 3,6 5,1 5,6 19 10 26 14 Z 1019,2 72 43 0,0
18.02.2019 08:00:00 8,2 -1,5 5,3 3,3 5,2 5,6 18 10 24 13 ZZW 1019,4 59 0 0,0
18.02.2019 07:00:00 9,0 -1,9 4,6 3,7 5,3 5,6 12 7 23 13 Z 1019,5 60 0 0,0
18.02.2019 06:00:00 9,2 -1,8 5,9 4,0 5,4 5,6 14 8 24 13 Z 1019,7 53 0 0,0
18.02.2019 05:00:00 9,5 -1,8 6,3 4,2 5,5 5,6 15 8 26 14 Z 1019,5 61 0 0,0
18.02.2019 04:00:00 10,2 -1,9 7,3 4,5 5,6 5,6 19 11 27 15 Z 1019,7 57 0 0,0
18.02.2019 03:00:00 10,4 -1,7 7,8 4,7 5,7 5,6 18 10 32 18 Z 1019,9 59 0 0,0
18.02.2019 02:00:00 11,1 -1,9 8,8 4,9 5,8 5,6 21 11 32 17 ZZW 1020,1 49 0 0,0
18.02.2019 01:00:00 10,7 -1,6 8,7 5,0 5,9 5,6 24 13 34 19 ZZW 1020,1 58 0 0,0
18.02.2019 00:00:00 10,4 -0,8 8,3 5,3 6,0 5,6 19 11 31 17 ZZW 1020,4 51 0 0,0
17.02.2019 23:00:00 10,3 -0,5 8,0 5,6 6,0 5,6 20 11 31 17 Z 1020,6 44 0 0,0
17.02.2019 22:00:00 11,0 -0,4 8,5 5,9 6,1 5,6 21 11 34 18 Z 1020,5 46 0 0,0
17.02.2019 21:00:00 11,4 -0,2 9,3 6,3 6,2 5,6 22 12 38 20 Z 1020,1 47 0 0,0
17.02.2019 20:00:00 11,4 -0,2 9,1 6,8 6,2 5,6 25 14 37 20 Z 1019,8 50 0 0,0
17.02.2019 19:00:00 11,4 0,5 7,7 7,5 6,1 5,6 15 8 25 14 Z 1019,9 52 0 0,0
17.02.2019 18:00:00 13,3 0,3 8,8 9,0 6,0 5,5 12 6 22 12 Z 1019,4 52 30 0,0
17.02.2019 17:00:00 15,7 0,2 13,9 10,4 5,7 5,5 11 6 26 14 Z 1019,1 43 60 0,0
17.02.2019 16:00:00 17,1 0,1 16,9 11,1 5,3 5,5 16 9 31 17 ZZW 1019,3 50 60 0,0
17.02.2019 15:00:00 17,4 -2,4 17,7 11,6 5,0 5,5 16 9 27 15 Z 1019,3 54 60 0,0
17.02.2019 14:00:00 17,3 -1,0 18,1 10,9 4,6 5,5 10 6 21 12 ZZW 1019,9 48 60 0,0
17.02.2019 13:00:00 15,8 -1,3 16,9 9,5 4,3 5,5 13 7 28 15 ZW 1020,6 39 60 0,0
17.02.2019 12:00:00 15,5 0,1 16,2 7,7 4,2 5,5 14 8 28 15 Z 1021,0 55 60 0,0
17.02.2019 11:00:00 13,6 -0,2 13,2 5,8 4,1 5,5 22 12 28 15 Z 1021,4 42 60 0,0
17.02.2019 10:00:00 11,4 0,8 10,7 4,0 4,1 5,5 20 11 28 15 ZZO 1021,8 35 58 0,0
17.02.2019 09:00:00 9,9 0,3 8,3 2,6 4,2 5,5 25 14 29 16 Z 1022,2 29 34 0,0
17.02.2019 08:00:00 6,6 -0,1 2,6 1,9 4,3 5,5 16 8 21 12 ZZO 1022,8 30 0 0,0
17.02.2019 07:00:00 4,8 0,0 0,4 2,4 4,5 5,5 10 5 23 12 O 1023,1 24 0 0,0
17.02.2019 06:00:00 8,4 -0,5 4,9 2,6 4,6 5,5 18 10 25 13 Z 1022,9 33 0 0,0
17.02.2019 05:00:00 5,4 0,5 0,9 2,9 4,6 5,5 11 6 18 10 ZO 1023,5 25 0 0,0
17.02.2019 04:00:00 10,4 1,2 7,0 3,1 4,7 5,5 14 7 23 13 Z 1023,5 27 0 0,0
17.02.2019 03:00:00 9,6 0,2 4,7 3,3 4,9 5,5 11 6 25 14 Z 1024,1 29 0 0,0
17.02.2019 02:00:00 7,7 0,0 4,8 3,4 5,0 5,5 16 9 24 13 ZZW 1024,7 34 0 0,0
17.02.2019 01:00:00 8,8 -0,1 6,2 3,5 5,1 5,5 18 10 27 15 Z 1024,9 35 0 0,0
17.02.2019 00:00:00 9,0 0,2 6,3 3,5 5,2 5,5 16 9 22 12 ZZW 1025,2 34 0 0,0
16.02.2019 23:00:00 7,4 0,2 2,2 3,9 5,4 5,5 11 6 23 13 ZZO 1025,6 42 0 0,0
16.02.2019 22:00:00 7,9 0,9 4,7 4,0 5,5 5,5 16 9 19 11 ZZW 1025,6 39 0 0,0
16.02.2019 21:00:00 10,3 0,5 0,6 4,5 5,6 5,5 5 3 9 5 ZZO 1025,4 34 0 0,0
16.02.2019 20:00:00 9,6 1,7 1,2 5,4 5,7 5,5 8 4 10 6 ZO 1025,6 29 0 0,0
16.02.2019 19:00:00 10,5 2,4 1,9 6,6 5,6 5,5 4 2 8 5 W 1025,7 31 0 0,0
16.02.2019 18:00:00 12,1 2,6 7,2 8,3 5,5 5,5 7 4 10 5 WNW 1025,4 28 24 0,0
16.02.2019 17:00:00 13,4 4,0 12,2 9,7 5,2 5,5 7 4 15 8 ZW 1025,5 28 60 0,0
16.02.2019 16:00:00 14,4 2,4 14,8 10,0 4,9 5,5 11 6 19 10 ZW 1025,6 35 60 0,0
16.02.2019 15:00:00 14,6 1,6 15,3 10,0 4,6 5,5 14 8 27 15 ZW 1025,7 38 60 0,0
16.02.2019 14:00:00 14,2 1,0 15,1 9,6 4,3 5,5 18 10 30 16 WZW 1025,9 33 60 0,0
16.02.2019 13:00:00 14,1 1,7 14,8 8,6 4,0 5,5 22 12 29 16 ZW 1026,3 39 60 0,0
16.02.2019 12:00:00 13,0 2,1 13,2 7,2 3,9 5,5 21 11 29 15 ZW 1026,6 38 60 0,0
16.02.2019 11:00:00 12,1 1,3 12,0 5,5 3,8 5,5 15 8 25 14 ZW 1026,5 43 60 0,0
16.02.2019 10:00:00 10,1 0,1 9,4 3,8 3,8 5,5 20 11 26 14 ZW 1026,5 42 60 0,0
16.02.2019 09:00:00 8,3 -0,8 6,8 2,7 3,9 5,5 22 12 29 16 ZW 1026,7 53 40 0,0
16.02.2019 08:00:00 8,3 -1,7 6,0 2,5 4,0 5,5 22 12 32 17 ZZW 1026,2 67 0 0,0
16.02.2019 07:00:00 7,6 -1,6 5,3 2,6 4,0 5,5 22 12 29 16 ZZW 1025,9 64 0 0,0
16.02.2019 06:00:00 8,6 -1,7 6,2 2,6 4,1 5,5 23 13 29 16 Z 1026,1 67 0 0,0
16.02.2019 05:00:00 9,1 -2,2 6,8 2,7 4,2 5,5 22 12 36 19 ZZW 1026,1 63 0 0,0
16.02.2019 04:00:00 9,4 -2,1 6,5 2,7 4,3 5,5 22 12 29 15 Z 1026,4 73 0 0,0
16.02.2019 03:00:00 9,5 -1,9 7,0 2,8 4,4 5,5 21 11 29 15 ZZW 1026,4 67 0 0,0
16.02.2019 02:00:00 8,7 -1,4 5,2 3,1 4,5 5,5 14 7 33 18 Z 1026,8 48 0 0,0
16.02.2019 01:00:00 10,2 -1,6 7,3 2,8 4,7 5,5 26 14 38 21 Z 1026,7 68 0 0,0
16.02.2019 00:00:00 5,5 -0,6 -0,1 2,7 4,9 5,5 13 7 23 12 Z 1027,5 53 0 0,0
15.02.2019 23:00:00 8,3 -0,1 3,7 2,9 5,0 5,5 17 9 22 12 Z 1027,8 57 0 0,0
15.02.2019 22:00:00 8,7 -0,9 0,1 3,6 5,2 5,5 7 4 13 7 ZZW 1027,9 74 0 0,0
15.02.2019 21:00:00 9,2 -1,4 0,1 4,5 5,3 5,5 12 6 16 9 Z 1027,9 75 0 0,0
15.02.2019 20:00:00 10,4 -1,6 1,1 5,5 5,3 5,5 10 5 17 9 Z 1028,1 75 0 0,0
15.02.2019 19:00:00 12,4 -0,7 6,5 6,9 5,2 5,5 16 8 19 10 Z 1028,2 75 0 0,0
15.02.2019 18:00:00 12,1 5,3 4,5 8,8 4,9 5,5 7 4 10 5 O 1028,0 50 33 0,0
15.02.2019 17:00:00 14,4 6,0 15,6 10,3 4,6 5,5 6 3 8 4 ONO 1028,0 49 60 0,0
15.02.2019 16:00:00 15,9 6,0 18,2 10,7 4,2 5,5 6 3 11 6 NO 1028,6 56 60 0,0
15.02.2019 15:00:00 16,0 3,7 17,7 10,6 3,7 5,5 7 4 14 8 NNO 1029,2 26 60 0,0
15.02.2019 14:00:00 15,9 2,8 17,2 10,2 3,3 5,5 9 5 11 6 NNO 1030,0 54 60 0,0
15.02.2019 13:00:00 15,7 1,0 17,0 8,5 3,0 5,5 5 3 9 5 N 1030,7 67 60 0,0
15.02.2019 12:00:00 14,1 -1,6 15,7 5,6 3,0 5,5 7 4 10 6 O 1031,3 51 60 0,0
15.02.2019 11:00:00 11,7 -1,8 11,8 2,3 3,0 5,5 7 4 10 6 ONO 1031,7 51 60 0,0
15.02.2019 10:00:00 8,6 -1,3 6,8 1,1 3,1 5,5 7 4 10 5 O 1032,3 75 60 0,0
15.02.2019 09:00:00 7,9 -6,7 1,9 1,0 3,2 5,5 9 5 12 7 OZO 1032,6 74 39 0,0
15.02.2019 08:00:00 8,7 -8,2 -1,1 1,1 3,2 5,5 6 4 11 6 O 1032,3 75 0 0,0
15.02.2019 07:00:00 8,8 -8,4 -2,0 1,2 3,3 5,5 7 4 10 5 OZO 1032,3 75 0 0,0
15.02.2019 06:00:00 7,7 -8,5 -1,8 1,3 3,4 5,5 5 3 8 4 O 1032,4 75 0 0,0
15.02.2019 05:00:00 8,8 -9,1 -2,2 1,4 3,5 5,5 4 2 8 4 OZO 1032,4 75 0 0,0
15.02.2019 04:00:00 9,6 -8,5 -1,1 1,5 3,6 5,5 6 3 8 4 ONO 1032,5 75 0 0,0
15.02.2019 03:00:00 6,6 -6,0 -1,1 1,6 3,7 5,5 7 4 13 7 O 1033,3 59 0 0,0
15.02.2019 02:00:00 7,4 -6,7 -1,3 1,7 3,9 5,5 9 5 14 7 O 1033,5 67 0 0,0
15.02.2019 01:00:00 8,3 -6,5 -0,9 1,9 4,0 5,5 4 2 14 8 OZO 1033,4 75 0 0,0
15.02.2019 00:00:00 9,0 -7,1 -1,0 2,1 4,2 5,5 7 4 13 7 ZO 1033,4 75 0 0,0
14.02.2019 23:00:00 6,5 -4,2 -0,4 2,3 4,3 5,5 11 6 16 9 OZO 1033,7 54 0 0,0
14.02.2019 22:00:00 8,0 -4,4 2,0 2,7 4,5 5,5 14 8 16 9 OZO 1033,8 53 0 0,0
14.02.2019 21:00:00 8,7 -4,8 0,6 3,4 4,6 5,5 12 6 16 9 ZO 1033,9 75 0 0,0
14.02.2019 20:00:00 6,6 1,8 0,6 4,2 4,6 5,5 11 6 13 7 ZO 1034,3 36 0 0,0
14.02.2019 19:00:00 9,4 1,7 0,0 5,4 4,5 5,5 7 4 9 5 O 1034,0 50 0 0,0
14.02.2019 18:00:00 11,0 2,2 3,8 7,1 4,3 5,5 9 5 11 6 O 1033,7 40 32 0,0
14.02.2019 17:00:00 11,2 3,0 10,9 8,8 4,0 5,5 9 5 15 8 O 1033,9 54 60 0,0
14.02.2019 16:00:00 14,5 -1,2 15,2 9,6 3,5 5,5 7 4 10 6 NNO 1033,9 70 60 0,0
14.02.2019 15:00:00 14,5 -5,6 15,5 9,6 3,1 5,5 6 4 11 6 N 1034,2 75 60 0,0
14.02.2019 14:00:00 14,4 -6,0 15,2 8,8 2,8 5,5 5 3 10 6 NNW 1034,7 75 60 0,0
14.02.2019 13:00:00 13,2 -1,4 14,4 6,9 2,6 5,5 6 3 9 5 NW 1035,4 62 60 0,0
14.02.2019 12:00:00 12,5 -2,4 14,1 3,3 2,6 5,5 6 4 10 5 O 1035,9 70 60 0,0
14.02.2019 11:00:00 10,4 -5,2 9,3 0,8 2,6 5,5 3 2 6 4 OZO 1036,1 67 60 0,0
14.02.2019 10:00:00 8,8 -5,0 5,6 0,7 2,7 5,5 6 3 8 4 ZO 1036,3 75 60 0,0
14.02.2019 09:00:00 6,6 -9,1 -0,4 0,7 2,7 5,5 5 3 11 6 OZO 1036,6 75 36 0,0
14.02.2019 08:00:00 3,9 -7,9 -3,4 0,8 2,8 5,5 9 5 11 6 O 1036,4 75 0 0,0
14.02.2019 07:00:00 2,3 -5,2 -3,8 0,8 2,9 5,5 7 4 10 5 O 1036,0 75 0 0,0
14.02.2019 06:00:00 5,3 -8,4 -4,1 0,9 2,9 5,5 8 4 9 5 ZZO 1035,5 75 0 0,0
14.02.2019 05:00:00 4,9 -7,3 -3,3 1,0 3,0 5,5 7 4 9 5 ZZO 1035,5 75 0 0,0
14.02.2019 04:00:00 5,4 -7,9 -3,1 1,1 3,1 5,5 6 3 13 7 Z 1035,5 75 0 0,0
14.02.2019 03:00:00 4,8 -6,0 -1,1 1,2 3,2 5,5 13 7 18 10 ZZW 1035,7 75 0 0,0
14.02.2019 02:00:00 4,3 -5,8 0,0 1,3 3,3 5,5 13 7 18 10 ZZW 1035,7 75 0 0,0
14.02.2019 01:00:00 4,4 -4,0 -2,0 1,4 3,4 5,5 5 3 9 5 Z 1035,8 75 0 0,0
14.02.2019 00:00:00 4,1 -2,1 -2,6 1,5 3,5 5,5 5 3 15 8 Z 1035,8 67 0 0,0
13.02.2019 23:00:00 3,6 -1,3 -2,3 1,6 3,6 5,5 5 3 8 5 Z 1036,1 59 0 0,0
13.02.2019 22:00:00 2,4 -0,5 -1,7 1,7 3,7 5,5 7 4 8 5 ZZO 1036,6 32 0 0,0
13.02.2019 21:00:00 3,7 0,0 -1,1 2,0 3,8 5,5 5 3 6 4 ZZO 1036,4 34 0 0,0
13.02.2019 20:00:00 4,4 0,5 -0,6 2,6 3,9 5,5 5 3 6 3 ZO 1036,4 36 0 0,0
13.02.2019 19:00:00 4,7 0,3 -1,0 3,5 3,8 5,5 4 2 7 4 Z 1036,5 36 0 0,0
13.02.2019 18:00:00 4,7 0,6 -0,4 4,9 3,7 5,5 3 2 9 5 WZW 1036,5 37 0 0,0
13.02.2019 17:00:00 5,8 1,0 4,8 6,0 3,5 5,5 7 4 12 7 WZW 1035,9 39 0 0,0
13.02.2019 16:00:00 6,8 0,4 7,0 6,8 3,2 5,5 10 5 14 8 ZW 1035,9 60 28 0,0
13.02.2019 15:00:00 7,2 0,0 8,4 6,8 3,0 5,5 6 3 12 6 ZW 1036,2 46 60 0,0
13.02.2019 14:00:00 6,7 0,6 8,0 5,8 2,7 5,5 7 4 17 9 WZW 1036,7 59 44 0,0
13.02.2019 13:00:00 6,0 0,3 6,7 4,9 2,6 5,5 14 7 19 10 WZW 1036,9 44 25 0,0
13.02.2019 12:00:00 6,1 0,8 7,2 3,3 2,6 5,5 15 8 19 11 ZW 1037,0 55 60 0,0
13.02.2019 11:00:00 4,1 -0,8 4,1 1,0 2,6 5,5 12 6 21 11 ZZW 1037,4 42 60 0,0
13.02.2019 10:00:00 2,4 -1,4 1,7 0,9 2,7 5,5 12 6 21 11 ZZW 1037,6 44 56 0,0
13.02.2019 09:00:00 1,6 -2,0 0,6 0,9 2,7 5,4 15 8 22 12 ZZW 1037,6 32 32 0,0
13.02.2019 08:00:00 1,0 -2,1 -0,2 0,9 2,8 5,4 16 9 23 12 ZZW 1037,3 34 0 0,0
13.02.2019 07:00:00 1,0 -2,0 -0,4 1,0 2,8 5,4 14 8 23 13 ZZW 1036,8 37 0 0,0
13.02.2019 06:00:00 1,1 -1,9 0,0 1,0 2,9 5,4 17 9 26 14 ZZW 1036,7 31 0 0,0
13.02.2019 05:00:00 1,1 -1,9 0,2 1,0 2,9 5,4 19 10 32 18 ZZW 1036,5 34 0 0,0
13.02.2019 04:00:00 1,5 -1,6 0,5 1,1 3,0 5,4 21 11 28 15 ZZW 1036,9 32 0 0,0
13.02.2019 03:00:00 1,5 -1,4 0,5 1,1 3,1 5,4 17 9 22 12 ZZW 1037,5 28 0 0,0
13.02.2019 02:00:00 1,3 -1,1 0,3 1,1 3,1 5,4 13 7 26 14 ZW 1037,3 24 0 0,0
13.02.2019 01:00:00 1,9 -0,8 0,9 1,2 3,2 5,4 21 12 30 16 ZZW 1036,9 23 0 0,0
13.02.2019 00:00:00 1,5 -0,6 0,4 1,2 3,3 5,4 16 9 29 15 ZW 1037,1 20 0 0,0
12.02.2019 23:00:00 1,6 -0,4 0,6 1,2 3,4 5,4 19 10 27 14 ZZW 1036,6 22 0 0,0
12.02.2019 22:00:00 2,0 0,0 0,7 1,5 3,5 5,4 19 10 27 14 ZW 1036,5 25 0 0,0
12.02.2019 21:00:00 2,9 -0,2 1,6 1,7 3,6 5,4 19 11 25 13 ZW 1036,3 29 0 0,0
12.02.2019 20:00:00 2,9 -0,1 1,4 2,4 3,6 5,4 16 9 20 11 ZW 1036,0 30 0 0,0
12.02.2019 19:00:00 3,2 0,4 1,6 3,2 3,5 5,4 14 7 18 10 ZW 1036,1 27 0 0,0

tt = temperatuur
td = dauwpunt
tt 5cm = temperatuur 5cm
tt -5cm = temperatuur -5cm
tt -20cm = temperatuur -20cm
tt -100cm = temperatuur -100cm
ff = windsnelheid
fx = windstoten
dd = windrichting
ppp = luchtdruk
vv = zicht
sd = Zonneschijnduur
rr = neerslag

Weerstations in de omgeving